| time (UTC) | temp F | wind direction | speed MPH | gust MPH | rain 1hr in | rain 24hr in | rain mn in | humidity % | barometer mb |
| 20260903134515 | 62 | 173 | 12.0 | 22.0 | 0.00 | 0.04 | 0.04 | 82 | 1027.8 |
| 20260903133015 | 62 | 192 | 10.0 | 16.0 | 0.00 | 0.04 | 0.04 | 79 | 1027.7 |
| 20260903131516 | 62 | 192 | 10.0 | 16.0 | 0.00 | 0.04 | 0.04 | 80 | 1027.7 |
| 20260903130016 | 61 | 195 | 10.0 | 20.0 | 0.00 | 0.04 | 0.04 | 82 | 1027.7 |
| 20260903123016 | 62 | 185 | 11.0 | 20.0 | 0.00 | 0.04 | 0.04 | 82 | 1028.0 |
| 20260903121515 | 61 | 191 | 10.0 | 18.0 | 0.00 | 0.04 | 0.04 | 83 | 1028.0 |
| 20260903120015 | 61 | 189 | 11.0 | 19.0 | 0.01 | 0.04 | 0.04 | 85 | 1028.3 |
| 20260903114515 | 61 | 175 | 13.0 | 25.0 | 0.01 | 0.04 | 0.04 | 83 | 1028.2 |
| 20260903113015 | 60 | 145 | 12.0 | 19.0 | 0.01 | 0.04 | 0.04 | 85 | 1027.9 |
| 20260903111514 | 60 | 168 | 11.0 | 16.0 | 0.01 | 0.04 | 0.04 | 88 | 1028.1 |
| 20260903110015 | 60 | 173 | 9.0 | 18.0 | 0.00 | 0.03 | 0.03 | 89 | 1028.3 |
| 20260903104513 | 61 | 146 | 10.0 | 20.0 | 0.00 | 0.03 | 0.03 | 85 | 1028.3 |
| 20260903103014 | 61 | 165 | 12.0 | 18.0 | 0.00 | 0.03 | 0.03 | 87 | 1028.3 |
| 20260903100015 | 61 | 142 | 11.0 | 15.0 | 0.00 | 0.03 | 0.03 | 82 | 1028.3 |
| 20260903094514 | 61 | 151 | 8.0 | 14.0 | 0.01 | 0.03 | 0.03 | 83 | 1028.6 |
| 20260903091514 | 59 | 182 | 6.0 | 9.0 | 0.01 | 0.03 | 0.03 | 88 | 1028.6 |
| 20260903090014 | 60 | 154 | 5.0 | 11.0 | 0.01 | 0.03 | 0.03 | 87 | 1028.6 |
| 20260903083014 | 59 | 161 | 6.0 | 11.0 | 0.00 | 0.02 | 0.02 | 89 | 1028.6 |
| 20260903081519 | 59 | 168 | 5.0 | 12.0 | 0.00 | 0.02 | 0.02 | 89 | 1028.2 |
| 20260903080019 | 60 | 120 | 5.0 | 10.0 | 0.00 | 0.02 | 0.02 | 84 | 1028.2 |
| 20260903073019 | 60 | 23 | 2.0 | 8.0 | 0.01 | 0.02 | 0.02 | 86 | 1028.2 |
| 20260903071519 | 58 | 1 | 2.0 | 3.0 | 0.01 | 0.02 | 0.02 | 87 | 1028.0 |
| 20260903070020 | 58 | 2 | 2.0 | 4.0 | 0.01 | 0.02 | 0.02 | 86 | 1027.9 |
| 20260903064518 | 59 | 10 | 1.0 | 4.0 | 0.01 | 0.02 | 0.02 | 85 | 1027.7 |
| 20260903063018 | 59 | 10 | 0.0 | 1.0 | 0.00 | 0.02 | 0.02 | 83 | 1027.7 |
| 20260903061518 | 58 | 10 | 1.0 | 4.0 | 0.00 | 0.02 | 0.02 | 84 | 1027.7 |
| 20260903060018 | 58 | 10 | 2.0 | 4.0 | 0.00 | 0.02 | 0.02 | 87 | 1027.6 |
| 20260903053019 | 58 | 1 | 5.0 | 8.0 | 0.00 | 0.02 | 0.02 | 80 | 1027.2 |
| 20260903051517 | 57 | 1 | 7.0 | 9.0 | 0.01 | 0.02 | 0.02 | 87 | 1027.3 |
| 20260903050018 | 56 | 1 | 9.0 | 10.0 | 0.01 | 0.02 | 0.02 | 92 | 1027.1 |
| 20260903041517 | 57 | 1 | 9.0 | 13.0 | 0.00 | 0.01 | 0.01 | 91 | 1027.0 |
| 20260903040018 | 56 | 1 | 10.0 | 13.0 | 0.00 | 0.01 | 0.01 | 91 | 1027.1 |
| 20260903034517 | 57 | 1 | 8.0 | 11.0 | 0.00 | 0.01 | 0.01 | 90 | 1026.8 |
| 20260903033017 | 56 | 1 | 7.0 | 11.0 | 0.00 | 0.01 | 0.01 | 91 | 1026.8 |
| 20260903031516 | 56 | 1 | 3.0 | 5.0 | 0.00 | 0.01 | 0.01 | 91 | 1026.9 |
| 20260903030017 | 56 | 358 | 2.0 | 4.0 | 0.00 | 0.01 | 0.01 | 90 | 1027.0 |
| 20260903024515 | 57 | 1 | 5.0 | 8.0 | 0.01 | 0.01 | 0.01 | 91 | 1027.0 |
| 20260903023016 | 56 | 1 | 5.0 | 6.0 | 0.01 | 0.01 | 0.01 | 90 | 1027.0 |
| 20260903021516 | 57 | 356 | 5.0 | 6.0 | 0.01 | 0.01 | 0.01 | 90 | 1027.1 |
| 20260903020017 | 57 | 320 | 4.0 | 5.0 | 0.01 | 0.01 | 0.01 | 89 | 1027.0 |
| 20260903013016 | 57 | 288 | 2.0 | 5.0 | 0.00 | 0.00 | 0.00 | 88 | 1027.2 |
| 20260903011515 | 57 | 288 | 1.0 | 3.0 | 0.00 | 0.00 | 0.00 | 88 | 1027.1 |
| 20260903010016 | 57 | 288 | 4.0 | 4.0 | 0.00 | 0.00 | 0.00 | 87 | 1027.1 |
| 20260903004516 | 57 | 257 | 3.0 | 6.0 | 0.00 | 0.00 | 0.00 | 86 | 1027.1 |
| 20260903003014 | 58 | 249 | 1.0 | 2.0 | 0.00 | 0.00 | 0.00 | 86 | 1027.1 |
| 20260903000015 | 58 | 247 | 2.0 | 4.0 | 0.00 | 0.00 | 0.00 | 84 | 1027.1 |
| 20260902234514 | 58 | 208 | 2.0 | 4.0 | 0.00 | 0.00 | 0.00 | 85 | 1027.1 |
| 20260902233014 | 57 | 190 | 2.0 | 3.0 | 0.00 | 0.00 | 0.00 | 86 | 1027.2 |
| 20260902230015 | 58 | 283 | 1.0 | 3.0 | 0.00 | 0.00 | 0.00 | 82 | 1027.2 |
| 20260902224514 | 58 | 281 | 1.0 | 4.0 | 0.00 | 0.00 | 0.00 | 82 | 1027.4 |
| 20260902214514 | 58 | 235 | 3.0 | 4.0 | 0.00 | 0.00 | 0.00 | 80 | 1027.0 |
| 20260902211514 | 58 | 234 | 2.0 | 4.0 | 0.00 | 0.00 | 0.00 | 78 | 1026.7 |
| 20260902201513 | 57 | 220 | 5.0 | 6.0 | 0.00 | 0.00 | 0.00 | 93 | 1026.6 |
| 20260902194520 | 57 | 209 | 8.0 | 9.0 | 0.00 | 0.00 | 0.00 | 92 | 1026.7 |
| 20260902193019 | 57 | 204 | 6.0 | 9.0 | 0.00 | 0.00 | 0.00 | 93 | 1026.6 |
| 20260902191519 | 57 | 199 | 6.0 | 8.0 | 0.00 | 0.00 | 0.00 | 93 | 1026.6 |
| 20260902190019 | 57 | 203 | 7.0 | 10.0 | 0.00 | 0.00 | 0.00 | 93 | 1026.5 |
| 20260902184519 | 57 | 209 | 6.0 | 8.0 | 0.00 | 0.00 | 0.00 | 92 | 1026.3 |
| 20260902183018 | 57 | 217 | 7.0 | 9.0 | 0.00 | 0.00 | 0.00 | 91 | 1025.9 |
| 20260902181518 | 57 | 225 | 8.0 | 11.0 | 0.00 | 0.00 | 0.00 | 90 | 1025.9 |
| 20260902174518 | 57 | 198 | 6.0 | 7.0 | 0.00 | 0.00 | 0.00 | 90 | 1025.7 |
| 20260902173017 | 58 | 193 | 6.0 | 8.0 | 0.00 | 0.00 | 0.00 | 90 | 1025.7 |
| 20260902170018 | 59 | 186 | 6.0 | 8.0 | 0.00 | 0.00 | 0.00 | 89 | 1025.7 |
| 20260902164517 | 59 | 190 | 9.0 | 14.0 | 0.00 | 0.00 | 0.00 | 89 | 1025.8 |
| 20260902163018 | 59 | 189 | 9.0 | 13.0 | 0.00 | 0.00 | 0.00 | 87 | 1025.9 |
| 20260902161518 | 59 | 188 | 9.0 | 15.0 | 0.00 | 0.00 | 0.00 | 89 | 1025.7 |
| 20260902160017 | 60 | 192 | 9.0 | 13.0 | 0.00 | 0.00 | 0.00 | 87 | 1025.8 |
| 20260902154517 | 60 | 174 | 10.0 | 16.0 | 0.00 | 0.00 | 0.00 | 86 | 1025.7 |
| 20260902153017 | 60 | 193 | 10.0 | 14.0 | 0.00 | 0.00 | 0.00 | 86 | 1025.8 |
| 20260902151518 | 61 | 192 | 9.0 | 15.0 | 0.00 | 0.00 | 0.00 | 82 | 1025.8 |
| 20260902150017 | 61 | 185 | 10.0 | 20.0 | 0.00 | 0.00 | 0.00 | 84 | 1026.1 |
| 20260902144516 | 60 | 168 | 9.0 | 15.0 | 0.00 | 0.00 | 0.00 | 82 | 1025.9 |
| 20260902143016 | 59 | 185 | 8.0 | 13.0 | 0.00 | 0.00 | 0.00 | 87 | 1026.0 |
| 20260902141517 | 59 | 174 | 12.0 | 19.0 | 0.00 | 0.00 | 0.00 | 89 | 1026.3 |
| 20260902140016 | 59 | 162 | 12.0 | 16.0 | 0.00 | 0.00 | 0.00 | 88 | 1026.4 |